TIANWANG 1B (TW-1B)
1 40927U 15051C   19176.50098008  .00006736  00000-0  10477-3 0  9992
2 40927  97.1369 222.0225 0008226  13.8252  91.7972 15.54214285211076
TIANWANG 1A (TW-1A)
1 40928U 15051D   19176.51506192  .00002177  00000-0  55025-4 0  9996
2 40928  97.1443 207.6685 0012730  56.4590  75.7023 15.40789379210223
LAPAN A2
1 40931U 15052B   19176.03578652  .00000833  00000-0  26818-4 0  9993
2 40931   6.0172  11.4697 0014807 248.9820 110.8547 14.76611540202203
LQSAT
1 40958U 15057A   19175.20167393 -.00000010  00000-0  60928-5 0  9990
2 40958  97.8983 244.2498 0017241 220.1804 139.8131 14.73081942199618
CHUBUSAT 2
1 41338U 16012B   19176.14585163  .00000215  00000-0  99762-5 0  9992
2 41338  31.0031 103.7512 0013854 167.6316 192.4661 15.00152833183884
CHUBUSAT 3
1 41339U 16012C   19176.18111027  .00000152  00000-0  50288-5 0  9991
2 41339  31.0091 101.6113 0013624 175.7901 184.2851 15.00327993183881
OUFTI-1
1 41458U 16025C   19175.70209118 +.00000574 +00000-0 +33692-4 0  9990
2 41458 098.1021 262.8495 0165845 337.4050 021.9931 15.05816437173479
E-STAR-2
1 41459U 16025D   19176.31814754  .00001026  00000-0  56862-4 0  9994
2 41459  98.1011 263.1558 0166829 336.4790  22.8896 15.05458647173549
AAUSAT 4
1 41460U 16025E   19176.28559455  .00000909  00000-0  49887-4 0  9994
2 41460  98.0957 264.3795 0157002 329.4256  29.7844 15.07338754173667
NUSAT 1
1 41557U 16033B   19176.53070555  .00000690  00000-0  28613-4 0  9998
2 41557  97.4180 263.9905 0012103 274.1456  85.8399 15.27211738171135
BEESAT 4
1 41619U 16040W   19175.62482697 +.00000830 +00000-0 +38088-4 0  9991
2 41619 097.3670 237.7382 0011519 012.0077 348.1432 15.23127085154763
PRATHAM
1 41783U 16059A   19176.16520434  .00000010  00000-0  11181-4 0  9990
2 41783  98.0669 235.6043 0033619   6.1660 353.9949 14.62996313146497
ALSAT 1N
1 41789U 16059G   19176.42168870  .00000046  00000-0  17704-4 0  9993
2 41789  98.0686 237.8637 0028411 355.2811   4.8120 14.64245798146630
NAYIF 1
1 42017U 17008BX  19176.19125892  .00000939  00000-0  39876-4 0  9999
2 42017  97.4027 243.2185 0007421 135.5369 224.6466 15.25528618130913
MAX VALIER SAT
1 42778U 17036P   19175.37991079  .00000578  00000-0  28289-4 0  9996
2 42778  97.3539 232.9215 0011845 196.4592 163.6261 15.22013673111104
